Flight Track Log - Related Links

Times and Time Zones

All times are in EDT time to prevent confusion due to time zone crossing. See the GGN7301 flight status page for this flight to view local times or setup timezone preferences in your user account.


Time Position Orientation Groundspeed Altitude Reporting Facility
EDT Latitude Longitude Course Direction KTS MPH feet Rate Location/Type
Mon 07:41:06 AM 41.9461 -72.6997 323° Northwest 142 163 800  Level Boston Center
Mon 07:42:00 AM 41.9764 -72.7308 323° Northwest 153 176 2,300 1,680 Climbing Boston Center
Mon 07:42:21 AM 41.9883 -72.7394 332° Northwest 154 177 2,900 1,902 Climbing Boston Center
Mon 07:43:22 AM 42.0267 -72.7647 334° Northwest 154 177 4,900 1,835 Climbing Boston Center
Mon 07:44:22 AM 42.0642 -72.7881 335° Northwest 153 176 6,600 1,884 Climbing Boston Center
Mon 07:45:23 AM 42.1042 -72.8164 332° Northwest 152 175 8,700 1,790 Climbing Boston Center
Mon 07:46:26 AM 42.1425 -72.8392 336° Northwest 152 175 10,300 1,403 Climbing Boston Center
Mon 07:47:27 AM 42.1797 -72.8700 328° Northwest 153 176 11,600 1,377 Climbing Boston Center
Mon 07:48:28 AM 42.2261 -72.8789 352° North 166 191 13,100 1,525 Climbing Boston Center
Mon 07:49:29 AM 42.2764 -72.8900 351° North 167 192 14,700 1,415 Climbing Boston Center
Mon 07:50:31 AM 42.3236 -72.9050 347° North 171 197 16,000 1,220 Climbing Boston Center
Mon 07:51:32 AM 42.3733 -72.9178 349° North 179 206 17,200 1,091 Climbing Boston Center
Mon 07:52:32 AM 42.4278 -72.9283 352° North 183 211 18,200 984 Climbing Boston Center
Mon 07:53:34 AM 42.4767 -72.9422 348° North 186 214 19,200 836 Climbing Boston Center
Mon 07:54:34 AM 42.5294 -72.9581 348° North 192 221 19,900 387 Climbing Boston Center
Mon 07:55:38 AM 42.5894 -72.9717 351° North 211 243 20,000 49 Climbing Boston Center
Mon 07:56:36 AM 42.6564 -72.9900 349° North 237 273 20,000  Level Boston Center
Mon 07:57:40 AM 42.7203 -73.0075 349° North 245 282 20,000  Level Boston Center
Mon 07:58:40 AM 42.8036 -73.0297 349° North 250 288 20,000  Level Boston Center
Mon 07:59:42 AM 42.8728 -73.0469 350° North 253 291 20,000  Level Boston Center
Mon 08:00:42 AM 42.9428 -73.0606 352° North 254 292 20,000  Level Boston Center
Mon 08:01:44 AM 43.0106 -73.0800 348° North 253 291 20,000  Level Boston Center
Mon 08:02:44 AM 43.0742 -73.0972 349° North 236 272 20,000 -50 Level Boston Center
Mon 08:03:45 AM 43.1367 -73.1119 350° North 233 268 19,900  Descending Boston Center
Mon 08:04:46 AM 43.2003 -73.1275 350° North 233 268 20,000 48 Climbing Boston Center
Mon 08:05:49 AM 43.2619 -73.1444 349° North 227 261 20,000  Level Boston Center
Mon 08:06:50 AM 43.3250 -73.1597 350° North 228 262 20,000  Level Boston Center
Mon 08:07:51 AM 43.3875 -73.1767 349° North 228 262 20,000 -50 Level Boston Center
Mon 08:08:51 AM 43.4575 -73.1964 348° North 228 262 19,900 -50 Descending Boston Center
Mon 08:09:52 AM 43.5211 -73.2108 351° North 230 265 19,900  Level Boston Center
Mon 08:10:55 AM 43.5850 -73.2272 349° North 231 266 19,900 48 Level Boston Center
Mon 08:11:56 AM 43.6486 -73.2422 350° North 231 266 20,000 49 Climbing Boston Center
Mon 08:12:57 AM 43.7100 -73.2614 347° North 230 265 20,000  Level Boston Center
Mon 08:13:57 AM 43.7728 -73.2786 349° North 230 265 20,000  Level Boston Center
Mon 08:14:57 AM 43.8356 -73.2942 350° North 230 265 20,000 -48 Level Boston Center
Mon 08:16:01 AM 43.9114 -73.3136 350° North 230 265 19,900  Descending Boston Center
Mon 08:17:02 AM 43.9750 -73.3308 349° North 230 265 20,000 50 Climbing Boston Center
Mon 08:18:02 AM 44.0389 -73.3453 351° North 232 267 20,000  Level Boston Center
Mon 08:19:04 AM 44.1019 -73.3650 347° North 232 267 20,000 -49 Level Boston Center
Mon 08:20:04 AM 44.1658 -73.3808 350° North 232 267 19,900 -50 Descending Boston Center
Mon 08:21:05 AM 44.2289 -73.3975 349° North 232 267 19,900 49 Level Boston Center
Mon 08:22:06 AM 44.2928 -73.4172 348° North 233 268 20,000 49 Climbing Boston Center
Mon 08:23:07 AM 44.3575 -73.4319 351° North 233 268 20,000 -48 Level Boston Center
Mon 08:24:11 AM 44.4211 -73.4492 349° North 233 268 19,900 -48 Descending Boston Center
Mon 08:25:11 AM 44.4850 -73.4678 348° North 233 268 19,900  Level Boston Center
Mon 08:26:12 AM 44.5472 -73.4886 347° North 232 267 19,900 -248 Level Boston Center
Mon 08:27:12 AM 44.6272 -73.5033 353° North 239 275 19,400 -843 Descending Boston Center
Mon 08:28:13 AM 44.6964 -73.5278 346° North 251 289 18,200 -1,210 Descending Boston Center
Mon 08:29:16 AM 44.7597 -73.5764 331° Northwest 258 297 16,900 -1,403 Descending Boston Center
Mon 08:30:17 AM 44.8211 -73.6231 332° Northwest 254 292 15,300 -1,686 Descending Boston Center
Mon 08:31:17 AM 44.8850 -73.6619 337° Northwest 253 291 13,500 -1,736 Descending Boston Center
Mon 08:32:18 AM 44.9442 -73.7144 328° Northwest 251 289 11,800 -1,200 Descending Boston Center
Mon 08:33:37 AM 45.0167 -73.7667 333° Northwest 220 253 10,700 -906 Descending Montreal Center
Mon 08:34:37 AM 45.0667 -73.7833 347° North 220 253 9,700 -950 Descending Montreal Center
Mon 08:35:37 AM 45.1167 -73.8333 325° Northwest 220 253 8,800 -1,000 Descending Montreal Center
Mon 08:36:37 AM 45.1833 -73.8500 350° North 220 253 7,700 -1,350 Descending Montreal Center
Mon 08:37:37 AM 45.2333 -73.8667 347° North 220 253 6,100 -1,650 Descending Montreal Center
Mon 08:38:37 AM 45.3000 -73.9000 341° North 240 276 4,400 -1,650 Descending Montreal Center
Mon 08:39:37 AM 45.3500 -73.9000 360° North 190 219 2,800 -1,300 Descending Montreal Center
Mon 08:40:37 AM 45.3833 -73.8500 46° Northeast 170 196 1,800 -1,000 Descending Montreal Center
Mon 08:41:37 AM 45.4167 -73.8000 46° Northeast 160 184 800 -850 Descending Montreal Center
Mon 08:42:37 AM 45.4500 -73.7500 46° Northeast 130 150 100 -350 Descending Montreal Center
Mon 08:43:37 AM 45.4667 -73.7500 360° North 70 81 100  Level Montreal Center

Login

Don't have an account? Register now (free) for customized features, flight alerts, and more!